Simultaneous Nadir Overpasses (SNOs) Predictions

Prediction of SNOs between NOAA-20 and TERRA Satellite Orbit:

Table of predicted SNOs for the next 14.0 days since TLE Epoch: 11/9/2024
Index Date (NOAA-20) Time (NOAA-20) Lat,Lon (NOAA-20) SZA (NOAA-20 ) Date (TERRA) Time (TERRA) Lat,Lon (TERRA) SZA (TERRA ) Distance(km) Time Diff (sec)
1 11/11/2024 00:49:26 72.98, 158.65 90.45 11/11/2024 00:50:38 72.91, 158.93 90.36 12.15 72
2 11/11/2024 01:40:06 -72.80, -33.67 89.73 11/11/2024 01:40:01 -72.81, -33.59 89.73 2.66 5
3 11/11/2024 02:30:40 72.17, 134.91 89.63 11/11/2024 02:29:31 72.24, 133.04 89.74 63.98 69
4 11/13/2024 12:01:47 72.88, -9.25 91.01 11/13/2024 12:02:54 72.89, -9.21 91.01 1.30 67
5 11/13/2024 12:52:29 -72.81, 158.22 89.06 11/13/2024 12:52:17 -72.78, 158.25 89.09 2.98 12
6 11/15/2024 23:14:09 72.86,-177.30 91.62 11/15/2024 23:15:08 72.88,-177.33 91.63 2.18 59
7 11/16/2024 00:04:51 -72.78, -9.82 88.46 11/16/2024 00:04:31 -72.77, -9.86 88.47 1.93 20
8 11/18/2024 10:26:30 72.86, 14.61 92.22 11/18/2024 10:27:19 72.88, 14.60 92.24 2.92 49
9 11/18/2024 11:17:12 -72.78,-177.90 87.87 11/18/2024 11:16:42 -72.77,-177.95 87.87 1.63 30
10 11/20/2024 21:38:52 72.88,-153.52 92.80 11/20/2024 21:39:30 72.85,-153.55 92.77 3.04 38
11 11/20/2024 22:29:34 -72.79, 13.98 87.29 11/20/2024 22:28:52 -72.79, 14.00 87.28 0.85 42



Historial Predications of SNOs between NOAA-20 and TERRA
